Location: Unspecified
(17.6330°N, 0.0000°E)
Time: 07:12:12
(UTC+00:00)

S-56A Canister/Altair - Pass Details

Date: 26 June 2019
Orbit: 632 x 2500 km, 38.9° (Epoch: 19 July)

Event Time Altitude Azimuth Distance (km) Brightness Sun altitude
Rises 17:34:09 0° 308° (NW) 4,628 13.1 13.3°
Reaches altitude 10° 17:40:02 10° 335° (NNW) 3,145 11.5 12.0°
Maximum altitude 17:42:57 12° 358° (N) 2,720 10.7 11.3°
Drops below altitude 10° 17:45:31 10° 22° (NNE) 2,685 10.4 10.7°
Sets 17:49:35 0° 53° (NE) 3,316 10.5 9.8°
